Location: Unspecified
(33.6682°S, 0.0000°E)
Time: 03:10:09
(UTC+00:00)

Tiros 1 despin weight - Pass Details

Date: 25 June 2019
Orbit: 594 x 642 km, 48.2° (Epoch: 21 July)

Event Time Altitude Azimuth Distance (km) Brightness Sun altitude
Rises 09:15:46 0° 307° (NW) 2,886 ? 20.5°
Reaches altitude 10° 09:18:03 10° 306° (NW) 1,994 ? 20.8°
Maximum altitude 09:22:40 81° 217° (SW) 647 ? 21.4°
Drops below altitude 10° 09:27:22 10° 130° (SE) 2,040 ? 22.0°
Sets 09:29:44 0° 129° (SE) 2,959 ? 22.3°
